20040403,000002,950392,33.447190,-120.792520,NaN,14.497,33.189,40.454,1968.37,0.0, NaN,13.108,13.061, NaN,24.684,   NaN,14.16,1007.51,77.27,13.83,314.3,308.6,13.3,13.6,308.9,303.8,11.2,12.0,NaN, NaN,NaN,18.9,NaN,1080950404,NaN,NaN,8.2,000003,   NaN,14.9,33.447120,-120.792590,0.52,NaN,NaN,14.500, NaN,NaN,NaN, NaN, NaN
20040403,000032,950422,33.448300,-120.792080,NaN,14.457,33.189,40.416,1972.40,0.0, NaN,13.105,13.060, NaN,24.692,   NaN,14.13,1007.48,76.97,13.79,313.6,309.2,14.5,14.5,310.1,305.7,12.3,12.6,NaN, NaN,NaN,23.1,NaN,1080950434,NaN,NaN,8.4,000033,   NaN,12.6,33.448220,-120.792140,0.56,NaN,NaN,14.460, NaN,NaN,NaN, NaN, NaN
20040403,000102,950451,33.449410,-120.791630,NaN,14.450,33.190,40.410,1974.20,0.0, NaN,13.103,13.058, NaN,24.695,   NaN,14.13,1007.46,76.76,13.78,312.6,308.6,14.8,14.7,309.4,305.0,12.8,12.9,NaN, NaN,NaN,35.1,NaN,1080950464,NaN,NaN,9.4,000063,   NaN,12.1,33.449330,-120.791680,0.87,NaN,NaN,14.453, NaN,NaN,NaN, NaN, NaN
20040403,000132,950482,33.450530,-120.791220,NaN,14.441,33.185,40.397,1968.93,0.0, NaN,13.102,13.057, NaN,24.693,   NaN,14.11,1007.44,76.30,13.78,312.2,308.3,15.2,15.1,308.8,304.7,13.1,13.3,NaN, NaN,NaN,6.8,NaN,1080950494,NaN,NaN,8.9,000093,   NaN,12.2,33.450420,-120.791280,0.98,NaN,NaN,14.444, NaN,NaN,NaN, NaN, NaN
20040403,000202,950512,33.451620,-120.790800,NaN,14.431,33.186,40.389,1809.18,0.0, NaN,13.101,13.058, NaN,24.695,   NaN,14.14,1007.51,76.37,13.78,311.3,308.3,15.0,15.1,307.5,304.6,13.0,13.3,NaN, NaN,NaN,34.6,NaN,1080950524,NaN,NaN,10.9,000123,   NaN,11.2,33.451540,-120.790860,0.56,NaN,NaN,14.434, NaN,NaN,NaN, NaN, NaN
20040403,000232,950542,33.452730,-120.790380,NaN,14.430,33.187,40.388,1876.54,0.0, NaN,13.099,13.055, NaN,24.696,   NaN,14.18,1007.51,76.81,13.82,311.3,308.2,14.5,14.6,307.1,304.1,12.5,12.8,NaN, NaN,NaN,18.3,NaN,1080950554,NaN,NaN,9.5,000153,   NaN,15.1,33.452650,-120.790440,0.69,NaN,NaN,14.433, NaN,NaN,NaN, NaN, NaN
20040403,000302,950572,33.453800,-120.789890,NaN,14.434,33.184,40.389,1964.31,0.0, NaN,13.098,13.055, NaN,24.693,   NaN,14.18,1007.49,76.72,13.82,311.9,307.8,14.4,14.2,308.3,303.9,12.4,12.5,NaN, NaN,NaN,12.1,NaN,1080950584,NaN,NaN,7.5,000183,   NaN,11.2,33.453720,-120.789940,0.71,NaN,NaN,14.437, NaN,NaN,NaN, NaN, NaN
20040403,000332,950602,33.454940,-120.789440,NaN,14.418,33.186,40.375,1964.15,0.0, NaN,13.110,13.069, NaN,24.698,   NaN,14.20,1007.55,77.03,13.82,311.7,307.8,14.2,14.2,307.7,303.6,12.3,12.5,NaN, NaN,NaN,28.8,NaN,1080950614,NaN,NaN,10.6,000213,   NaN,12.7,33.454850,-120.789490,0.60,NaN,NaN,14.421, NaN,NaN,NaN, NaN, NaN
20040403,000402,950631,33.456050,-120.788970,NaN,14.403,33.188,40.364,1955.91,0.0, NaN,13.143,13.106, NaN,24.702,   NaN,14.23,1007.54,77.34,13.85,313.3,308.9,13.9,14.2,308.3,304.1,11.8,12.4,NaN, NaN,NaN,0.7,NaN,1080950644,NaN,NaN,7.5,000243,   NaN,10.1,33.455950,-120.789030,0.77,NaN,NaN,14.406, NaN,NaN,NaN, NaN, NaN
20040403,000432,950662,33.457160,-120.788540,NaN,14.415,33.185,40.373,1955.91,0.0, NaN,13.159,13.120, NaN,24.698,   NaN,14.18,1007.51,76.92,13.83,314.4,310.2,14.2,14.6,309.7,306.0,12.0,12.7,NaN, NaN,NaN,24.1,NaN,1080950674,NaN,NaN,7.7,000273,   NaN,12.9,33.457060,-120.788590,0.57,NaN,NaN,14.418, NaN,NaN,NaN, NaN, NaN
20040403,000503,950692,33.458290,-120.788100,NaN,14.403,33.184,40.359,1952.47,0.0, NaN,13.161,13.123, NaN,24.700,   NaN,14.15,1007.54,76.63,13.81,312.9,309.6,14.4,14.8,308.3,305.5,12.3,12.9,NaN, NaN,NaN,18.0,NaN,1080950704,NaN,NaN,9.3,000303,   NaN,12.9,33.458190,-120.788160,0.92,NaN,NaN,14.406, NaN,NaN,NaN, NaN, NaN
20040403,000533,950723,33.459410,-120.787630,NaN,14.401,33.183,40.357,1947.93,0.0, NaN,13.164,13.125, NaN,24.699,   NaN,14.21,1007.52,77.27,13.85,314.0,310.1,14.1,14.4,309.5,306.0,11.9,12.5,NaN, NaN,NaN,14.7,NaN,1080950734,NaN,NaN,8.9,000333,   NaN,12.7,33.459330,-120.787710,0.79,NaN,NaN,14.404, NaN,NaN,NaN, NaN, NaN
20040403,000603,950753,33.460580,-120.787110,NaN,14.394,33.183,40.351,1948.13,0.0, NaN,13.180,13.141, NaN,24.701,   NaN,14.18,1007.56,76.84,13.82,313.3,308.9,14.2,14.3,309.0,304.6,12.1,12.6,NaN, NaN,NaN,30.0,NaN,1080950764,NaN,NaN,8.0,000364,   NaN,12.3,33.460450,-120.787170,0.65,NaN,NaN,14.397, NaN,NaN,NaN, NaN, NaN
20040403,000633,950783,33.461650,-120.786700,NaN,14.399,33.181,40.352,1947.49,0.0, NaN,13.203,13.166, NaN,24.698,   NaN,14.21,1007.53,77.20,13.84,312.7,308.8,14.6,14.7,308.4,304.4,12.6,12.9,NaN, NaN,NaN,14.8,NaN,1080950794,NaN,NaN,8.4,000393,   NaN,13.2,33.461560,-120.786780,0.69,NaN,NaN,14.402, NaN,NaN,NaN, NaN, NaN
20040403,000703,950813,33.462730,-120.786210,NaN,14.408,33.174,40.354,1946.44,0.0, NaN,13.227,13.189, NaN,24.691,   NaN,14.19,1007.55,77.14,13.84,312.9,308.5,14.0,14.2,307.9,303.6,12.0,12.5,NaN, NaN,NaN,20.4,NaN,1080950824,NaN,NaN,8.9,000423,   NaN,11.9,33.462650,-120.786260,0.86,NaN,NaN,14.411, NaN,NaN,NaN, NaN, NaN
20040403,000733,950843,33.463850,-120.785750,NaN,14.434,33.166,40.369,1945.97,0.0, NaN,13.247,13.211, NaN,24.679,   NaN,14.22,1007.66,77.66,13.86,314.0,309.3,13.4,13.8,308.8,304.4,11.4,12.0,NaN, NaN,NaN,4.8,NaN,1080950854,NaN,NaN,8.1,000453,   NaN,13.5,33.463770,-120.785840,0.89,NaN,NaN,14.437, NaN,NaN,NaN, NaN, NaN
20040403,000803,950872,33.464970,-120.785250,NaN,14.440,33.157,40.366,1861.52,0.0, NaN,13.261,13.226, NaN,24.671,   NaN,14.19,1007.56,77.20,13.84,314.0,309.8,13.5,13.8,308.9,305.0,11.4,12.1,NaN, NaN,NaN,7.7,NaN,1080950884,NaN,NaN,8.2,000483,   NaN,13.1,33.464870,-120.785330,0.79,NaN,NaN,14.443, NaN,NaN,NaN, NaN, NaN
20040403,000833,950903,33.466120,-120.784730,NaN,14.448,33.155,40.371,1941.25,0.0, NaN,13.272,13.235, NaN,24.668,   NaN,14.15,1007.57,76.91,13.80,314.0,309.9,13.8,14.1,309.3,305.6,11.7,12.3,NaN, NaN,NaN,35.6,NaN,1080950914,NaN,NaN,9.5,000514,   NaN,11.8,33.465980,-120.784830,0.82,NaN,NaN,14.451, NaN,NaN,NaN, NaN, NaN
20040403,000903,950933,33.467210,-120.784330,NaN,14.447,33.162,40.377,1861.11,0.0, NaN,13.281,13.244, NaN,24.674,   NaN,14.14,1007.57,76.68,13.80,315.2,311.0,14.0,14.5,310.2,306.6,11.8,12.6,NaN, NaN,NaN,21.8,NaN,1080950944,NaN,NaN,7.5,000543,   NaN,12.8,33.467110,-120.784400,0.74,NaN,NaN,14.450, NaN,NaN,NaN, NaN, NaN
20040403,000933,950963,33.468320,-120.783820,NaN,14.475,33.159,40.400,1768.89,0.0, NaN,13.286,13.249, NaN,24.665,   NaN,14.12,1007.56,75.95,13.77,316.5,311.1,14.5,15.2,312.1,307.4,12.2,13.3,NaN, NaN,NaN,2.2,NaN,1080950974,NaN,NaN,8.8,000573,   NaN,13.6,33.468220,-120.783880,0.71,NaN,NaN,14.478, NaN,NaN,NaN, NaN, NaN
20040403,001003,950993,33.469480,-120.783300,NaN,14.494,33.149,40.406,1818.70,0.0, NaN,13.293,13.254, NaN,24.653,   NaN,14.15,1007.52,76.14,13.80,315.5,309.9,14.7,15.2,311.7,306.5,12.5,13.4,NaN, NaN,NaN,15.5,NaN,1080951004,NaN,NaN,9.4,000604,   NaN,12.2,33.469320,-120.783380,0.74,NaN,NaN,14.497, NaN,NaN,NaN, NaN, NaN
20040403,001033,951023,33.470560,-120.782850,NaN,14.505,33.146,40.414,1872.54,0.0, NaN,13.301,13.263, NaN,24.649,   NaN,14.17,1007.56,76.10,13.82,313.8,308.6,14.5,14.7,309.8,304.7,12.4,13.0,NaN, NaN,NaN,25.1,NaN,1080951034,NaN,NaN,9.1,000633,   NaN,11.9,33.470470,-120.782890,0.89,NaN,NaN,14.508, NaN,NaN,NaN, NaN, NaN
20040403,001103,951053,33.471650,-120.782370,NaN,14.523,33.140,40.423,1919.00,0.0, NaN,13.312,13.274, NaN,24.640,   NaN,14.23,1007.66,76.79,13.85,314.1,309.3,13.9,14.2,309.0,304.5,11.8,12.5,NaN, NaN,NaN,15.6,NaN,1080951064,NaN,NaN,7.9,000663,   NaN,11.9,33.471560,-120.782420,0.88,NaN,NaN,14.526, NaN,NaN,NaN, NaN, NaN
20040403,001133,951083,33.472750,-120.781900,NaN,14.538,33.137,40.434,1919.89,0.0, NaN,13.314,13.277, NaN,24.635,   NaN,14.26,1007.68,77.24,13.89,315.6,310.7,13.3,13.9,309.7,305.4,11.2,12.1,NaN, NaN,NaN,37.6,NaN,1080951094,NaN,NaN,9.1,000693,   NaN,11.4,33.472660,-120.781950,0.80,NaN,NaN,14.541, NaN,NaN,NaN, NaN, NaN
20040403,001202,951112,33.473860,-120.781420,NaN,14.547,33.135,40.441,1907.96,0.0, NaN,13.314,13.279, NaN,24.632,   NaN,14.21,1007.60,76.73,13.86,316.6,311.4,13.7,14.3,311.5,307.0,11.5,12.5,NaN, NaN,NaN,356.6,NaN,1080951124,NaN,NaN,8.9,000723,   NaN,12.9,33.473770,-120.781480,0.73,NaN,NaN,14.550, NaN,NaN,NaN, NaN, NaN
20040403,001232,951142,33.474970,-120.780880,NaN,14.557,33.132,40.447,1908.88,0.0, NaN,13.311,13.276, NaN,24.627,   NaN,14.13,1007.58,75.93,13.79,315.3,310.2,14.7,15.1,311.7,306.8,12.6,13.3,NaN, NaN,NaN,27.3,NaN,1080951154,NaN,NaN,9.1,000753,   NaN,14.1,33.474880,-120.780940,0.68,NaN,NaN,14.560, NaN,NaN,NaN, NaN, NaN
20040403,001302,951172,33.476110,-120.780400,NaN,14.550,33.131,40.439,1902.33,0.0, NaN,13.315,13.278, NaN,24.628,   NaN,14.16,1007.69,76.11,13.80,314.3,309.3,14.9,15.2,310.6,305.8,12.8,13.4,NaN, NaN,NaN,24.7,NaN,1080951184,NaN,NaN,7.9,000783,   NaN,11.7,33.476010,-120.780450,0.60,NaN,NaN,14.553, NaN,NaN,NaN, NaN, NaN
20040403,001332,951202,33.477210,-120.779910,NaN,14.558,33.131,40.447,1902.35,0.0, NaN,13.318,13.280, NaN,24.626,   NaN,14.17,1007.68,76.10,13.81,314.8,309.8,14.4,14.8,310.3,305.6,12.3,13.1,NaN, NaN,NaN,27.3,NaN,1080951214,NaN,NaN,10.6,000813,   NaN,13.2,33.477110,-120.779940,0.80,NaN,NaN,14.561, NaN,NaN,NaN, NaN, NaN
20040403,001402,951232,33.478330,-120.779440,NaN,14.577,33.129,40.463,1835.56,0.0, NaN,13.319,13.280, NaN,24.621,   NaN,14.23,1007.77,76.72,13.86,316.3,311.2,13.7,14.3,310.9,306.3,11.5,12.4,NaN, NaN,NaN,20.9,NaN,1080951244,NaN,NaN,9.4,000843,   NaN,12.6,33.478230,-120.779460,0.81,NaN,NaN,14.580, NaN,NaN,NaN, NaN, NaN
20040403,001433,951263,33.479450,-120.778900,NaN,14.587,33.128,40.470,1833.33,0.0, NaN,13.314,13.276, NaN,24.618,   NaN,14.22,1007.74,76.72,13.87,316.3,311.2,13.2,13.7,310.9,306.4,11.0,11.9,NaN, NaN,NaN,22.9,NaN,1080951274,NaN,NaN,9.2,000873,   NaN,13.2,33.479340,-120.778930,0.99,NaN,NaN,14.591, NaN,NaN,NaN, NaN, NaN
20040403,001503,951293,33.480580,-120.778410,NaN,14.602,33.128,40.484,1895.71,0.0, NaN,13.311,13.271, NaN,24.614,   NaN,14.19,1007.72,76.60,13.85,316.4,311.9,13.3,14.0,310.9,307.1,11.1,12.1,NaN, NaN,NaN,21.3,NaN,1080951304,NaN,NaN,9.9,000903,   NaN,12.1,33.480470,-120.778440,0.78,NaN,NaN,14.606, NaN,NaN,NaN, NaN, NaN
20040403,001533,951323,33.481660,-120.777920,NaN,14.596,33.120,40.470,1853.72,0.0, NaN,13.305,13.265, NaN,24.609,   NaN,14.20,1007.80,76.94,13.84,316.1,311.1,13.5,14.1,310.8,306.4,11.4,12.3,NaN, NaN,NaN,36.7,NaN,1080951334,NaN,NaN,8.2,000933,   NaN,12.2,33.481550,-120.777940,0.82,NaN,NaN,14.600, NaN,NaN,NaN, NaN, NaN
20040403,001603,951353,33.482740,-120.777430,NaN,14.597,33.124,40.476,1838.71,0.0, NaN,13.298,13.259, NaN,24.612,   NaN,14.14,1007.71,76.09,13.80,315.9,311.2,13.8,14.5,310.8,306.8,11.7,12.7,NaN, NaN,NaN,10.6,NaN,1080951364,NaN,NaN,7.0,000963,   NaN,12.4,33.482630,-120.777460,0.82,NaN,NaN,14.601, NaN,NaN,NaN, NaN, NaN
20040403,001633,951382,33.483850,-120.776950,NaN,14.587,33.119,40.461,1874.53,0.0, NaN,13.296,13.255, NaN,24.611,   NaN,14.14,1007.73,76.31,13.80,316.2,311.6,13.9,14.6,310.8,307.0,11.8,12.7,NaN, NaN,NaN,17.0,NaN,1080951394,NaN,NaN,9.2,000993,   NaN,11.7,33.483750,-120.776990,0.77,NaN,NaN,14.591, NaN,NaN,NaN, NaN, NaN
20040403,001703,951413,33.485020,-120.776440,NaN,14.587,33.088,40.426,1842.53,0.0, NaN,13.293,13.251, NaN,24.587,   NaN,14.23,1007.75,77.16,13.85,315.6,311.3,13.6,14.0,309.8,306.1,11.4,12.2,NaN, NaN,NaN,36.7,NaN,1080951424,NaN,NaN,8.8,001024,   NaN,12.8,33.484880,-120.776510,0.75,NaN,NaN,14.591, NaN,NaN,NaN, NaN, NaN
20040403,001733,951443,33.486120,-120.775970,NaN,14.594,33.111,40.459,1875.22,0.0, NaN,13.286,13.248, NaN,24.603,   NaN,14.21,1007.78,77.20,13.85,316.2,311.2,13.0,13.4,310.0,305.4,10.8,11.5,NaN, NaN,NaN,27.7,NaN,1080951454,NaN,NaN,9.7,001053,   NaN,13.1,33.486010,-120.776000,0.65,NaN,NaN,14.598, NaN,NaN,NaN, NaN, NaN
20040403,001803,951473,33.487240,-120.775440,NaN,14.592,33.119,40.466,1867.90,0.0, NaN,13.286,13.249, NaN,24.609,   NaN,14.17,1007.74,76.88,13.82,316.3,311.1,13.7,14.1,311.0,306.1,11.5,12.3,NaN, NaN,NaN,41.9,NaN,1080951484,NaN,NaN,10.4,001083,   NaN,11.4,33.487140,-120.775480,0.62,NaN,NaN,14.596, NaN,NaN,NaN, NaN, NaN
20040403,001833,951503,33.488370,-120.774980,NaN,14.585,33.117,40.457,1862.00,0.0, NaN,13.289,13.250, NaN,24.609,   NaN,14.16,1007.72,76.92,13.83,316.7,311.7,13.8,14.4,311.6,307.1,11.6,12.6,NaN, NaN,NaN,17.5,NaN,1080951514,NaN,NaN,8.6,001113,   NaN,13.4,33.488260,-120.775040,0.45,NaN,NaN,14.589, NaN,NaN,NaN, NaN, NaN
20040403,001902,951532,33.489490,-120.774470,NaN,14.586,33.125,40.467,1866.85,0.0, NaN,13.294,13.253, NaN,24.616,   NaN,14.17,1007.78,77.06,13.82,315.5,310.6,13.8,14.3,310.2,305.8,11.7,12.4,NaN, NaN,NaN,6.4,NaN,1080951544,NaN,NaN,8.9,001143,   NaN,11.6,33.489380,-120.774520,0.85,NaN,NaN,14.590, NaN,NaN,NaN, NaN, NaN
20040403,001933,951563,33.490650,-120.773980,NaN,14.585,33.121,40.461,1806.39,0.0, NaN,13.302,13.265, NaN,24.612,   NaN,14.20,1007.84,77.47,13.85,314.8,310.5,13.7,14.0,309.3,305.5,11.6,12.2,NaN, NaN,NaN,35.4,NaN,1080951574,NaN,NaN,9.1,001174,   NaN,12.9,33.490510,-120.774060,0.75,NaN,NaN,14.589, NaN,NaN,NaN, NaN, NaN
20040403,002002,951592,33.491740,-120.773490,NaN,14.582,33.122,40.459,1721.19,0.0, NaN,13.316,13.282, NaN,24.614,   NaN,14.20,1007.80,77.62,13.85,317.1,311.9,13.3,13.8,310.6,306.0,11.0,11.9,NaN, NaN,NaN,19.5,NaN,1080951604,NaN,NaN,9.1,001203,   NaN,12.2,33.491640,-120.773560,0.73,NaN,NaN,14.585, NaN,NaN,NaN, NaN, NaN
20040403,002032,951622,33.492860,-120.772980,NaN,14.573,33.128,40.457,1856.51,0.0, NaN,13.328,13.293, NaN,24.620,   NaN,14.07,1007.73,76.14,13.77,315.1,311.2,14.1,14.4,310.2,306.6,12.0,12.6,NaN, NaN,NaN,18.4,NaN,1080951634,NaN,NaN,7.3,001233,   NaN,11.6,33.492750,-120.773050,0.87,NaN,NaN,14.576, NaN,NaN,NaN, NaN, NaN
20040403,002102,951652,33.494000,-120.772490,NaN,14.569,33.118,40.443,1763.01,0.0, NaN,13.335,13.295, NaN,24.613,   NaN,14.04,1007.73,75.49,13.72,314.4,310.8,14.8,15.0,310.0,306.6,12.7,13.1,NaN, NaN,NaN,10.4,NaN,1080951664,NaN,NaN,7.5,001263,   NaN,12.1,33.493880,-120.772550,0.89,NaN,NaN,14.572, NaN,NaN,NaN, NaN, NaN
20040403,002132,951682,33.495090,-120.771980,NaN,14.575,33.127,40.459,1732.28,0.0, NaN,13.339,13.295, NaN,24.619,   NaN,14.09,1007.80,75.42,13.74,313.3,309.9,14.8,14.9,308.4,305.3,12.8,13.2,NaN, NaN,NaN,22.1,NaN,1080951694,NaN,NaN,9.6,001293,   NaN,11.1,33.494990,-120.772040,0.48,NaN,NaN,14.578, NaN,NaN,NaN, NaN, NaN
20040403,002202,951712,33.496230,-120.771510,NaN,14.575,33.126,40.457,1838.05,0.0, NaN,13.339,13.294, NaN,24.618,   NaN,14.18,1007.88,76.29,13.80,314.0,310.2,13.9,14.0,307.5,304.2,11.8,12.3,NaN, NaN,NaN,12.3,NaN,1080951724,NaN,NaN,8.4,001323,   NaN,12.6,33.496120,-120.771580,0.64,NaN,NaN,14.578, NaN,NaN,NaN, NaN, NaN
20040403,002232,951742,33.497380,-120.771010,NaN,14.569,33.125,40.451,1827.31,0.0, NaN,13.339,13.295, NaN,24.619,   NaN,14.25,1007.83,77.09,13.85,315.8,311.7,13.0,13.4,308.8,305.3,10.8,11.5,NaN, NaN,NaN,7.5,NaN,1080951754,NaN,NaN,9.7,001353,   NaN,13.5,33.497280,-120.771070,0.56,NaN,NaN,14.572, NaN,NaN,NaN, NaN, NaN
20040403,002302,951772,33.498490,-120.770510,NaN,14.580,33.119,40.454,1763.39,0.0, NaN,13.334,13.295, NaN,24.613,   NaN,14.20,1007.87,77.01,13.85,317.4,312.1,12.7,13.4,310.8,306.4,10.4,11.4,NaN, NaN,NaN,34.4,NaN,1080951784,NaN,NaN,9.9,001383,   NaN,12.2,33.498400,-120.770570,0.92,NaN,NaN,14.583, NaN,NaN,NaN, NaN, NaN
20040403,002333,951803,33.499640,-120.770010,NaN,14.593,33.121,40.469,1702.96,0.0, NaN,13.325,13.290, NaN,24.611,   NaN,14.18,1007.79,77.15,13.83,317.4,312.4,12.9,13.8,311.3,307.4,10.7,11.9,NaN, NaN,NaN,9.8,NaN,1080951814,NaN,NaN,9.2,001413,   NaN,13.7,33.499550,-120.770070,0.88,NaN,NaN,14.597, NaN,NaN,NaN, NaN, NaN
20040403,002403,951833,33.500770,-120.769460,NaN,14.607,33.117,40.478,1703.21,0.0, NaN,13.317,13.281, NaN,24.605,   NaN,14.14,1007.85,77.02,13.80,317.5,312.5,13.2,13.9,311.4,307.2,11.0,12.0,NaN, NaN,NaN,352.5,NaN,1080951844,NaN,NaN,8.7,001443,   NaN,11.8,33.500670,-120.769530,0.78,NaN,NaN,14.611, NaN,NaN,NaN, NaN, NaN
20040403,002433,951863,33.501920,-120.768970,NaN,14.618,33.118,40.489,1649.89,0.0, NaN,13.312,13.271, NaN,24.603,   NaN,14.14,1007.82,76.92,13.80,315.9,312.0,13.9,14.3,310.5,307.2,11.7,12.4,NaN, NaN,NaN,37.7,NaN,1080951874,NaN,NaN,10.4,001473,   NaN,11.9,33.501830,-120.769020,0.62,NaN,NaN,14.622, NaN,NaN,NaN, NaN, NaN
20040403,002502,951892,33.503080,-120.768430,NaN,14.614,33.115,40.481,1703.72,0.0, NaN,13.306,13.267, NaN,24.602,   NaN,14.12,1007.79,76.78,13.78,315.3,311.6,14.1,14.5,310.0,306.8,11.9,12.6,NaN, NaN,NaN,3.9,NaN,1080951904,NaN,NaN,8.8,001503,   NaN,11.5,33.502980,-120.768490,0.30,NaN,NaN,14.618, NaN,NaN,NaN, NaN, NaN
20040403,002532,951922,33.504230,-120.767960,NaN,14.608,33.115,40.476,1811.61,0.0, NaN,13.303,13.265, NaN,24.603,   NaN,14.15,1007.86,77.09,13.78,316.2,311.0,13.8,14.3,310.9,305.9,11.6,12.4,NaN, NaN,NaN,8.3,NaN,1080951934,NaN,NaN,8.5,001533,   NaN,13.2,33.504130,-120.768020,0.68,NaN,NaN,14.612, NaN,NaN,NaN, NaN, NaN
20040403,002602,951952,33.505300,-120.767420,NaN,14.621,33.112,40.485,1749.96,0.0, NaN,13.306,13.268, NaN,24.598,   NaN,14.15,1007.93,77.06,13.78,316.0,311.3,13.4,13.8,310.1,305.8,11.3,12.0,NaN, NaN,NaN,29.2,NaN,1080951964,NaN,NaN,9.1,001563,   NaN,10.4,33.505210,-120.767480,0.81,NaN,NaN,14.625, NaN,NaN,NaN, NaN, NaN
20040403,002633,951983,33.506440,-120.766950,NaN,14.625,33.113,40.489,1708.24,0.0, NaN,13.309,13.270, NaN,24.598,   NaN,14.19,1007.84,77.57,13.81,315.3,312.0,13.3,13.6,309.3,306.6,11.3,11.8,NaN, NaN,NaN,33.3,NaN,1080951995,NaN,NaN,9.6,001594,   NaN,12.0,33.506340,-120.767000,0.77,NaN,NaN,14.629, NaN,NaN,NaN, NaN, NaN
20040403,002702,952012,33.507540,-120.766580,NaN,14.614,33.114,40.481,1740.97,0.0, NaN,13.307,13.268, NaN,24.601,   NaN,14.13,1007.93,77.11,13.77,317.6,313.3,12.9,13.5,309.0,305.7,10.7,11.7,NaN, NaN,NaN,8.6,NaN,1080952024,NaN,NaN,9.1,001623,   NaN,7.1,33.507440,-120.766630,0.42,NaN,NaN,14.618, NaN,NaN,NaN, NaN, NaN
20040403,002732,952042,33.508700,-120.766200,NaN,14.594,33.114,40.462,1802.13,0.0, NaN,13.304,13.266, NaN,24.605,   NaN,14.20,1007.92,77.85,13.82,319.4,315.1,12.9,13.7,309.9,306.6,10.5,11.6,NaN, NaN,NaN,31.0,NaN,1080952054,NaN,NaN,10.0,001653,   NaN,8.9,33.508620,-120.766250,0.36,NaN,NaN,14.598, NaN,NaN,NaN, NaN, NaN
20040403,002802,952072,33.509860,-120.765800,NaN,14.592,33.115,40.461,1775.96,0.0, NaN,13.299,13.260, NaN,24.606,   NaN,14.13,1007.92,77.17,13.77,320.5,317.2,12.5,13.6,309.8,308.1,10.0,11.3,NaN, NaN,NaN,2.9,NaN,1080952084,NaN,NaN,6.9,001683,   NaN,7.4,33.509760,-120.765850,0.71,NaN,NaN,14.596, NaN,NaN,NaN, NaN, NaN
20040403,002833,952103,33.511060,-120.765390,NaN,14.600,33.116,40.469,1792.32,0.0, NaN,13.296,13.259, NaN,24.605,   NaN,14.10,1007.81,76.82,13.75,320.3,317.2,13.0,14.1,310.4,308.8,10.5,11.8,NaN, NaN,NaN,33.4,NaN,1080952115,NaN,NaN,9.5,001714,   NaN,9.6,33.510950,-120.765450,0.83,NaN,NaN,14.604, NaN,NaN,NaN, NaN, NaN
20040403,002902,952132,33.512180,-120.765010,NaN,14.592,33.115,40.461,1784.76,0.0, NaN,13.299,13.261, NaN,24.607,   NaN,14.07,1007.86,76.27,13.73,320.0,316.7,13.3,14.6,310.3,308.6,10.9,12.3,NaN, NaN,NaN,24.2,NaN,1080952144,NaN,NaN,9.1,001743,   NaN,7.6,33.512080,-120.765060,0.63,NaN,NaN,14.596, NaN,NaN,NaN, NaN, NaN
20040403,002932,952162,33.513340,-120.764630,NaN,14.599,33.114,40.466,1779.22,0.0, NaN,13.300,13.261, NaN,24.604,   NaN,14.10,1007.78,76.39,13.75,319.5,315.7,13.6,14.9,310.4,308.1,11.1,12.6,NaN, NaN,NaN,17.3,NaN,1080952174,NaN,NaN,10.3,001773,   NaN,9.9,33.513250,-120.764680,0.56,NaN,NaN,14.603, NaN,NaN,NaN, NaN, NaN
20040403,003002,952192,33.514510,-120.764230,NaN,14.593,33.113,40.460,1727.65,0.0, NaN,13.297,13.259, NaN,24.604,   NaN,14.09,1007.76,75.90,13.74,319.8,315.7,13.7,14.9,310.6,307.9,11.2,12.7,NaN, NaN,NaN,20.7,NaN,1080952204,NaN,NaN,10.1,001803,   NaN,6.8,33.514410,-120.764280,0.71,NaN,NaN,14.597, NaN,NaN,NaN, NaN, NaN
20040403,003033,952222,33.515670,-120.763820,NaN,14.592,33.112,40.459,1778.40,0.0, NaN,13.297,13.255, NaN,24.604,   NaN,14.12,1007.85,76.11,13.75,320.1,315.6,13.6,14.8,310.7,307.6,11.1,12.5,NaN, NaN,NaN,29.3,NaN,1080952234,NaN,NaN,9.6,001833,   NaN,7.9,33.515570,-120.763880,0.59,NaN,NaN,14.596, NaN,NaN,NaN, NaN, NaN
20040403,003102,952252,33.516820,-120.763440,NaN,14.602,33.113,40.468,1653.26,0.0, NaN,13.296,13.254, NaN,24.603,   NaN,14.18,1007.85,76.52,13.79,320.3,316.0,13.3,14.5,310.3,307.5,10.8,12.3,NaN, NaN,NaN,8.0,NaN,1080952264,NaN,NaN,7.4,001863,   NaN,7.2,33.516710,-120.763500,0.71,NaN,NaN,14.606, NaN,NaN,NaN, NaN, NaN
20040403,003133,952283,33.518020,-120.763030,NaN,14.594,33.110,40.457,1771.92,0.0, NaN,13.292,13.253, NaN,24.602,   NaN,14.15,1007.82,76.36,13.78,319.3,315.6,13.3,14.4,309.5,307.3,10.8,12.2,NaN, NaN,NaN,27.2,NaN,1080952295,NaN,NaN,9.2,001894,   NaN,9.5,33.517920,-120.763090,0.56,NaN,NaN,14.598, NaN,NaN,NaN, NaN, NaN
20040403,003203,952313,33.519180,-120.762610,NaN,14.587,33.106,40.446,1771.31,0.0, NaN,13.289,13.250, NaN,24.600,   NaN,14.13,1007.82,76.17,13.77,319.3,315.0,13.4,14.6,309.8,306.6,11.0,12.4,NaN, NaN,NaN,23.6,NaN,1080952325,NaN,NaN,7.7,001924,   NaN,9.2,33.519090,-120.762670,0.79,NaN,NaN,14.591, NaN,NaN,NaN, NaN, NaN
20040403,003232,952342,33.520310,-120.762230,NaN,14.587,33.111,40.452,1736.03,0.0, NaN,13.286,13.247, NaN,24.605,   NaN,14.13,1007.86,76.22,13.76,318.9,314.6,13.5,14.5,309.1,306.0,11.1,12.4,NaN, NaN,NaN,18.2,NaN,1080952354,NaN,NaN,9.3,001953,   NaN,5.7,33.520220,-120.762270,0.54,NaN,NaN,14.591, NaN,NaN,NaN, NaN, NaN
20040403,003302,952372,33.521460,-120.761880,NaN,14.615,33.109,40.476,1730.71,0.0, NaN,13.284,13.243, NaN,24.597,   NaN,14.13,1007.92,76.57,13.77,320.3,315.5,12.9,13.9,308.7,305.2,10.4,11.8,NaN, NaN,NaN,12.2,NaN,1080952384,NaN,NaN,9.0,001983,   NaN,6.0,33.521360,-120.761920,0.48,NaN,NaN,14.619, NaN,NaN,NaN, NaN, NaN
20040403,003332,952402,33.522650,-120.761530,NaN,14.594,33.098,40.445,1763.18,0.0, NaN,13.283,13.244, NaN,24.593,   NaN,14.16,1007.88,76.85,13.79,322.3,318.0,12.6,13.8,309.5,306.7,10.1,11.5,NaN, NaN,NaN,1.0,NaN,1080952414,NaN,NaN,7.5,002013,   NaN,5.6,33.522550,-120.761570,0.59,NaN,NaN,14.598, NaN,NaN,NaN, NaN, NaN
20040403,003403,952433,33.523880,-120.761130,NaN,14.582,33.109,40.445,1757.63,0.0, NaN,13.283,13.245, NaN,24.604,   NaN,14.08,1007.81,76.14,13.75,321.9,318.8,12.9,14.3,310.1,308.6,10.3,11.8,NaN, NaN,NaN,22.1,NaN,1080952445,NaN,NaN,8.3,002044,   NaN,7.2,33.523780,-120.761170,0.71,NaN,NaN,14.585, NaN,NaN,NaN, NaN, NaN
20040403,003433,952463,33.525050,-120.760780,NaN,14.575,33.108,40.438,1750.06,0.0, NaN,13.284,13.244, NaN,24.605,   NaN,14.10,1007.91,76.33,13.75,321.7,318.6,13.1,14.7,309.9,308.8,10.5,12.3,NaN, NaN,NaN,12.6,NaN,1080952475,NaN,NaN,9.1,002074,   NaN,5.1,33.524940,-120.760820,0.62,NaN,NaN,14.578, NaN,NaN,NaN, NaN, NaN
20040403,003502,952492,33.526170,-120.760410,NaN,14.579,33.104,40.436,1740.69,0.0, NaN,13.280,13.243, NaN,24.601,   NaN,14.13,1007.90,76.60,13.77,321.6,317.8,13.0,14.4,309.3,307.4,10.5,12.1,NaN, NaN,NaN,22.6,NaN,1080952504,NaN,NaN,8.4,002103,   NaN,4.2,33.526060,-120.760450,0.80,NaN,NaN,14.582, NaN,NaN,NaN, NaN, NaN
20040403,003533,952523,33.527380,-120.760060,NaN,14.597,33.107,40.456,1728.27,0.0, NaN,13.278,13.242, NaN,24.599,   NaN,14.15,1007.94,76.96,13.78,322.1,318.7,12.7,13.9,309.1,307.5,10.2,11.6,NaN, NaN,NaN,349.0,NaN,1080952535,NaN,NaN,7.3,002134,   NaN,6.8,33.527280,-120.760110,0.37,NaN,NaN,14.601, NaN,NaN,NaN, NaN, NaN
20040403,003603,952552,33.528580,-120.759700,NaN,14.586,33.109,40.450,1720.73,0.0, NaN,13.276,13.240, NaN,24.603,   NaN,14.12,1007.88,76.60,13.76,321.8,319.3,12.8,14.1,309.4,308.6,10.2,11.6,NaN, NaN,NaN,18.4,NaN,1080952564,NaN,NaN,9.0,002164,   NaN,6.8,33.528430,-120.759750,0.51,NaN,NaN,14.590, NaN,NaN,NaN, NaN, NaN
20040403,003633,952583,33.529720,-120.759330,NaN,14.571,33.106,40.432,1703.91,0.0, NaN,13.275,13.240, NaN,24.604,   NaN,14.12,1007.88,76.74,13.76,321.8,319.3,12.9,14.1,310.1,309.4,10.3,11.6,NaN, NaN,NaN,23.7,NaN,1080952594,NaN,NaN,8.5,002193,   NaN,5.1,33.529600,-120.759370,0.65,NaN,NaN,14.574, NaN,NaN,NaN, NaN, NaN
20040403,003703,952613,33.530890,-120.758990,NaN,14.575,33.108,40.438,1727.00,0.0, NaN,13.275,13.240, NaN,24.604,   NaN,14.07,1007.83,76.07,13.73,321.3,318.2,13.0,14.4,309.3,308.0,10.5,12.0,NaN, NaN,NaN,19.6,NaN,1080952624,NaN,NaN,9.3,002223,   NaN,7.4,33.530780,-120.759030,0.37,NaN,NaN,14.578, NaN,NaN,NaN, NaN, NaN